#timestamp,LO_Frequency,Hit,StdDev 
1584954155.7,286046974.3,P
1584954175.5,286046975.5,P
1584954195.3,286046973.0,P
1584954215.2,286046973.3,Y
1584954235.0,286046996.9,P
1584954235.9,286046996.9,N
1584954255.8,286046997.8,N
1584954275.6,286046995.5,N
1584954295.4,286046996.4,N
1584954315.3,286046995.7,N
1584954335.1,286046995.8,N
1584954355.9,286046993.9,N
1584954375.7,286046994.8,N
1584954395.5,286046992.9,N
1584954415.4,286046992.6,N
1584954435.2,286046990.2,N
1584954455.0,286046990.1,N
1584954455.9,286046990.1,N
1584954475.8,286046990.1,N
1584954495.6,286046991.4,N
1584954515.5,286046988.7,N
1584954535.3,286046989.2,N
1584954555.1,286046987.0,N
1584954575.9,286046987.4,N
1584954595.7,286046987.3,N
1584954615.5,286046985.5,N
1584954635.4,286046986.8,N
1584954655.2,286046984.4,Y
1584954675.1,286046990.5,P
1584954676.0,286046990.5,P
1584954695.8,286046990.5,P
1584954715.6,286046990.5,Y
1584954735.5,286047000.9,P
1584954755.3,286046998.8,N
1584954775.1,286046999.1,N
1584954795.9,286046995.0,N
1584954815.7,286046995.6,N
1584954835.6,286046996.0,N
1584954855.4,286046996.1,N
1584954875.2,286046993.4,N
1584954895.1,286046991.9,N
1584954896.0,286046991.9,N
1584954915.8,286046991.8,N
1584954935.7,286046992.0,N
1584954955.5,286046992.6,N
1584954975.3,286046990.3,Y
1584954995.2,286046995.2,P
1584955015.0,286046993.3,P
1584955015.9,286046993.3,P
1584955035.7,286046993.6,Y
1584955055.6,286046998.3,P
1584955075.4,286046998.3,N
1584955095.3,286047000.8,N
1584955115.1,286046998.7,N
1584955116.0,286046998.7,N
1584955135.8,286046999.0,N
1584955155.7,286046998.3,N
1584955175.5,286046999.1,N
1584955195.3,286046996.5,N
1584955215.2,286046997.1,N
1584955235.0,286046997.6,N
1584955235.9,286046997.6,N
1584955255.8,286046995.4,Y
1584955275.6,286046997.0,P
1584955295.4,286046999.1,N
1584955315.3,286046996.5,P
1584955335.1,286046997.4,N
1584955355.9,286046997.5,N
1584955375.7,286046994.9,Y
1584955395.5,286046997.5,P
1584955415.4,286046997.7,P
1584955435.2,286046997.2,P
1584955455.1,286046997.7,Y
1584955456.0,286046997.7,P
1584955475.8,286046999.3,P
1584955495.6,286046997.3,P
1584955515.5,286046994.9,Y
1584955535.3,286046999.4,P
1584955555.2,286046997.0,P
1584955575.9,286046996.5,P
1584955595.7,286046996.6,Y
1584955615.6,286046999.1,P
1584955635.4,286046997.1,P
1584955655.2,286046997.9,N
1584955675.1,286046997.9,N
1584955676.0,286046997.9,Y
1584955695.8,286046997.3,P
1584955715.7,286046996.8,P
1584955735.5,286046997.9,P
1584955755.3,286046995.8,Y
1584955775.2,286046996.7,P
1584955795.0,286046997.9,P
1584955795.9,286046997.9,P
1584955815.8,286046995.5,Y
1584955835.6,286046997.5,P
1584955855.4,286046995.9,P
1584955875.3,286046995.2,P
1584955895.1,286046996.1,Y
1584955915.8,286046996.7,P
1584955935.7,286046996.6,P
1584955955.5,286046996.9,P
1584955975.4,286046998.0,Y
1584955995.2,286046998.1,P
1584956015.0,286046998.4,N
1584956015.9,286046998.4,N
1584956035.8,286046997.0,Y
1584956055.6,286047000.1,P
1584956075.5,286047001.1,N
1584956095.3,286047000.1,N
1584956115.1,286047000.6,N
1584956135.9,286046998.1,N
1584956155.7,286046998.2,N
1584956175.5,286046998.2,N
1584956195.4,286046997.2,N
1584956215.2,286046997.6,N
1584956235.1,286046997.9,N
1584956236.0,286046997.9,N
1584956255.8,286046997.7,N
1584956275.6,286046997.5,N
1584956295.5,286046997.6,N
1584956315.3,286046995.2,Y
1584956335.1,286046995.0,P
1584956355.9,286046996.1,N
1584956375.7,286046996.4,N
1584956395.6,286046994.4,Y
1584956415.4,286046995.4,P
1584956435.2,286046998.0,P
1584956455.1,286046993.6,P
1584956456.0,286046993.6,Y
1584956475.8,286046998.9,P
1584956495.7,286046998.9,N
1584956515.5,286046997.1,N
1584956535.3,286046997.5,N
1584956555.2,286046995.7,Y
1584956575.0,286046999.6,P
1584956575.9,286046999.6,N
1584956595.7,286047011.9,P
1584956615.6,286046995.7,N
1584956635.4,286046996.2,N
1584956655.3,286046993.4,N
1584956675.1,286046993.4,N
1584956676.0,286046993.4,N
1584956695.8,286046996.2,N
1584956715.7,286046994.0,N
1584956735.5,286046994.3,N
1584956755.4,286046994.3,N
1584956775.2,286046993.0,N
1584956795.0,286046990.5,N
1584956795.9,286046990.5,N
1584956815.8,286046991.1,N
1584956835